User: anonymous   Login
Location: Bothell
(47.7630°N, 122.2040°W)
Time: 13:33:42
(UTC-07:00)
Language:

Oscar 16 - Orbit

View from above orbital plane
View from above orbital plane
View from above satellite
View from above satellite

Ground track
Ground track

The orbit data is extracted from the following two-line orbital elements,

1 20439U 90005D   16240.43751890  .00000008  00000-0  19204-4 0  9990
2 20439  98.5764 176.2022 0010008 314.3424 157.8935 14.32642839389346
Epoch (UTC): 27 August 2016 10:30:01
Eccentricity: 0.0010008
inclination: 98.5764°
perigee height: 776 km
apogee height: 790 km
right ascension of ascending node: 176.2022°
argument of perigee: 314.3424°
revolutions per day: 14.32642839
mean anomaly at epoch: 157.8935°
orbit number at epoch: 38934

The dashed part of the orbit path shows where the satellite is in the earth's shadow,  

DLR